Location: Moscow
(44.4414°N, 72.7154°W)
Time: 22:51:34
(UTC+00:00)

Explorer 11/Cluster Stage 4 - Pass Details

Date: 20 December 2025
Orbit: 463 x 1179 km, 28.8° (Epoch: 23 January)

Event Time Altitude Azimuth Distance (km) Brightness Sun altitude
Rises 21:59:46 0° 240° (WSW) 3,971 12.7 -8.0°
Reaches altitude 10° 22:03:07 10° 227° (SW) 3,062 11.0 -8.6°
Maximum altitude 22:09:00 24° 178° (S) 2,218 9.1 -9.5°
Drops below altitude 10° 22:14:51 10° 128° (SE) 3,043 9.3 -10.5°
Sets 22:18:11 0° 116° (ESE) 3,941 9.8 -11.0°
